062  
ASUS41 KBGM 251010  
RWRBGM  
 
REGIONAL WEATHER ROUNDUP  
NATIONAL WEATHER SERVICE BINGHAMTON NY  
600 AM EDT SUN JUN 25 2017  
 
NOTE: "FAIR" INDICATES FEW OR NO CLOUDS BELOW 12,000 FEET WITH NO  
SIGNIFICANT WEATHER AND/OR S TO VISIBILITY
.  
 
* = STATION(S) THAT DOES NOT REPORT PRECIPITATION, SUCH AS RAIN,  
SNOW, ETC, ALSO NO THUNDER OR FOG.
 
 
NYZ009-015>018-022>025-036-037-044>046-055>057-062-251100   
..CENTRAL NEW YORK
 
 
 
CITY SKY/WX TMP DP RH WIND PRES REMARKS
 
BINGHAMTON MOCLDY 55 52 88 SW5 29.97  
CORTLAND FAIR 52 52 100 CALM 29.97S  
DANSVILLE CLEAR 57 52 83 SE6 29.97S  
ELMIRA CLEAR 73 54 49 W10 29.86  
SENECA FALLS MOSUNNY 61 57 88 SW3 29.95S  
ITHACA NOT AVBL  
HAMILTON CLOUDY 54 54 100 CALM 29.96F  
HORNELL CLEAR 54 52 94 SE5 30.02R  
MONTICELLO CLOUDY 55 55 100 CALM 30.00S VSB<1/4  
NORWICH CLOUDY 54 52 94 CALM 29.98R  
ONEONTA CLEAR 55 N/A N/A CALM 29.98R  
PENN YAN CLEAR 59 52 77 S5 29.96S  
ROME PTCLDY 53 52 96 CALM 29.95S  
SIDNEY FOG N/A N/A N/A CALM 29.98R VSB 1/4  
SYRACUSE PTCLDY 58 55 90 CALM 29.93R  

 
 
PAZ038>040-043-044-047-048-072-251100   
..NORTHEAST PENNSYLVANIA
 
 
 
CITY SKY/WX TMP DP RH WIND PRES REMARKS
 
HAZLETON HAZE 50 45 81 MISG 30.03S VSB 1/2  
SCRANTON PTCLDY 57 55 93 E3 29.98S  

 

 
KEY  
WCI = WIND CHILL INDEX  
VSB = VISIBILITY  
HX = HEAT INDEX  

 
 
 
CLICK HERE TO GO TO PREVIOUS BULLETINS.

The Nexlab NY Page
The Nexlab PA Page Main Text Page